Regional Weather Roundup
Issued by NWS Cleveland, OH

Home | Current Version | Previous Version | Text Only | Print | Product List | Glossary Off
Versions: 1 2 3 4 5 6 7 8 9 10 11 12 13 14 15 16 17 18 19 20 21 22 23 24 25 26 27 28 29 30 31 32 33 34 35 36 37 38 39 40 41 42 43 44 45 46 47 48 49 50

000
ASUS41 KCLE 240610
RWRCLE
OHIO REGIONAL WEATHER ROUNDUP
NATIONAL WEATHER SERVICE CLEVELAND, OH
200 AM EDT MON JUL 24 2017

NOTE: "FAIR" INDICATES FEW OR NO CLOUDS BELOW 12,000 FEET WITH NO
SIGNIFICANT WEATHER AND/OR OBSTRUCTIONS TO VISIBILITY.

OHZ001>008-015>018-024>027-034-035-043-044-240700-
   NORTHWEST OHIO

CITY           SKY/WX    TMP DP  RH WIND       PRES   REMARKS
DEFIANCE       CLOUDY   N/A N/A N/A N3        29.82S
FINDLAY        CLOUDY    70  66  87 S3        29.81S
TOLEDO EXPRESS CLOUDY    71  70  96 W5        29.80S
TOLEDO EXEC    PTCLDY    71  69  93 W6        29.81S
LIMA           PTCLDY    68  66  93 SW7       29.83F
$$

OHZ009>014-019>023-028>033-038-089-240700-
   NORTHEAST OHIO

CITY           SKY/WX    TMP DP  RH WIND       PRES   REMARKS
CLE-HOPKINS    MOCLDY    70  65  84 SW8       29.81S
CLE-LAKEFRONT  MOCLDY    71  64  78 SW10      29.78F
CUY CO. ARPT   NOT AVBL
LORAIN-ELYRIA  CLOUDY    66  61  84 W5        29.81R
ASHTABULA      MOCLDY    68  68 100 SW5       29.78F
AKRON-CANTON   PTCLDY    68  64  87 W5        29.82R
WOOSTER        PTCLDY    65  64  97 SW3       29.82F
MANSFIELD      CLEAR     66  66 100 SW6       29.83S
YOUNGSTOWN     PTCLDY    69  67  93 SW3       29.80R
$$

OHZ042-051>053-060>062-070>072-077>081-240700-
  SOUTHWEST OHIO

CITY           SKY/WX    TMP DP  RH WIND       PRES   REMARKS
CINC-COVINGTON CLEAR     68  68 100 S6        29.87S
CINC-LUNKEN    CLEAR     69  69 100 CALM      29.86S
HAMILTON       CLEAR     68  68 100 CALM      29.86F
DAYTON         PTCLDY    69  66  90 SW7       29.85F
WRIGHT-PAT AFB CLEAR     67  67 100 S5        29.84F
DAYTON GENERAL CLEAR     71  68  90 S3        29.85F
WILMINGTON     CLEAR     71  71 100 W7        29.85F
$$

OHZ036-037-039>041-045>050-054>059-063>069-073>076-082>088-240700-
  CENTRAL AND SOUTHEAST OHIO

CITY           SKY/WX    TMP DP  RH WIND       PRES   REMARKS
COLUMBUS       PTCLDY    69  69 100 CALM      29.83F FOG
OSU AIRPORT    CLEAR     68  68 100 SW5       29.83F
BOLTON FIELD   CLEAR     66  66 100 W5        29.84F
RICKENBACK AFB CLEAR     66  66 100 CALM      29.83S FOG
NEWARK         MOCLDY    67  66  97 CALM      29.82F
MARION         CLEAR     66  64  93 SW3       29.83S
LANCASTER      MOCLDY    60  50  70 CALM      29.84F FOG
ZANESVILLE     CLEAR     67  65  93 W5        29.83R
NEW PHILLY     NOT AVBL
$$




USA.gov is the U.S. government's official web portal to all federal, state and local government web resources and services.